O3B FM14

Last updated on Sat Jul 18 2026 00:03:21 GMT+0000 (Coordinated Universal Time)

1 43233U 18024C 26197.96962221 -.00000025 00000+0 00000+0 0 9998 2 43233 0.0523 5.0911 0002868 109.0999 245.8349 5.00115759152437
UTC large
Height (km)
Speed (km/s)
/
Latitude / Longitude
Inclination (degrees)
Orbital Period (minutes)
Azimuth
Elevation
Range (km)
Doppler Factor

Next 0 passes for location: London (51.5072 / 0.1276)

No passes found over London.
O3B FM14